Regional Weather Roundup
Issued by NWS Albany, NY

Home | Current Version | Previous Version | Graphics & Text | Print | Product List | Glossary On
Versions: 1 2 3 4 5 6 7 8 9 10 11 12 13 14 15 16 17 18 19 20 21 22 23 24 25 26 27
000
ASUS41 KALY 010310
RWRALY

NEW YORK STATE HOURLY WEATHER ROUNDUP
NATIONAL WEATHER SERVICE ALBANY NY
1100 PM EDT SAT APR 30 2016

NOTE: "FAIR" INDICATES FEW OR NO CLOUDS BELOW 12,000 FEET WITH NO
SIGNIFICANT WEATHER AND/OR NO OBSTRUCTIONS TO VISIBILITY.

NYZ032-033-038>043-046>054-057>066-NYZ062>081-082-084-010400-
EAST


CITY           SKY/WX    TMP DP  RH WIND       PRES   REMARKS
ALBANY         MOCLDY    57  38  48 S5        30.18R
GLENS FALLS    MOCLDY    47  29  49 NE3       30.19S
POUGHKEEPSIE   PTCLDY    54  36  50 SE6       30.21R
NEWBURGH       PTCLDY    52  34  50 VRB5      30.22R
MONTGOMERY     CLEAR     50  37  61 SW9       30.21R
WHITE PLAINS   CLEAR     45  37  73 SE5       30.23S
ISLIP          PTCLDY    47  36  65 S5        30.25S
NEW YORK CITY  MOCLDY    51  37  58 S8        30.24S
CENTRAL PARK   CLEAR     50  37  61 S8        30.26S
$$

NYZ005>009-017-018-044>046-055-056-010400-
CENTRAL


CITY           SKY/WX    TMP DP  RH WIND       PRES   REMARKS
FULTON         PTCLDY    51  33  50 CALM      30.15F
SYRACUSE       CLOUDY    55  41  59 S6        30.14F
ROME           CLOUDY    53  41  63 CALM      30.17R
ELMIRA         CLOUDY    52  40  63 CALM      30.14F
BINGHAMTON     CLOUDY    48  40  73 S3        30.15F
MONTICELLO     PTCLDY    48  41  76 S6        30.21S
$$

NYZ026>034-041>043-087-010400-
NORTH


CITY           SKY/WX    TMP DP  RH WIND       PRES   REMARKS
WATERTOWN      CLOUDY    48  29  47 E6        30.15S
FORT DRUM      NOT AVBL
MASSENA        CLOUDY    49  21  33 E7        30.19F
SARANAC LAKE   CLOUDY    43  18  36 NE7       30.16F
PLATTSBURGH    CLOUDY    42  27  55 CALM      30.20F
$$

NYZ001>004-010>016-019>021-085-010400-
WEST


CITY           SKY/WX    TMP DP  RH WIND       PRES   REMARKS
NIAGARA FALLS  CLOUDY    53  32  44 E8        30.08F
BUFFALO        CLOUDY    55  40  56 SE9       30.09F
DUNKIRK        LGT RAIN  51  45  79 S5        30.07F
JAMESTOWN      CLOUDY    46  43  87 E9        30.07F
WELLSVILLE     LGT RAIN  46  42  86 S8        30.12F
ROCHESTER      CLOUDY    53  33  46 SE6       30.13F
PENN YAN       CLOUDY    52  41  66 S9        30.14F
$$

             KEY
       WCI = WIND CHILL INDEX
       VSB = VISIBILITY
       HX  = HEAT INDEX
$$




USA.gov is the U.S. government's official web portal to all federal, state and local government web resources and services.